Regional Weather Roundup
Issued by NWS Kansas City/Pleasant Hill, MO

Home | Current Version | Previous Version | Graphics & Text | Print | Product List | Glossary Off
Versions: 1 2 3 4 5 6 7 8 9 10 11 12 13 14 15 16 17 18 19 20 21 22 23 24 25 26 27 28 29 30 31 32 33 34 35 36 37 38 39 40 41 42 43 44 45 46 47 48 49 50

275
ASUS43 KEAX 190710
RWREAX

WEATHER ROUNDUP FOR EASTERN KANSAS AND NORTHWEST MISSOURI
NATIONAL WEATHER SERVICE KANSAS CITY/PLEASANT HILL MO
100 AM CST SUN FEB 19 2017

KSZ040-057-103>105-MOZ028-029-037-043-190800-
...KANSAS CITY METROPOLITAN AREA...

CITY           SKY/WX    TMP DP  RH WIND       PRES   REMARKS
K.C. INTL      CLOUDY    53  49  86 SW8       29.88R
K.C. DOWNTOWN  CLOUDY    56  50  80 SW3       29.88R
LEES SUMMIT    CLEAR     54  50  86 SW9       29.89S
OLATHE - IXD   CLEAR     46  45  96 S5        29.89S
OLATHE - OJC   CLEAR     50  49  96 SW6       29.89R
LAWRENCE       PTCLDY    43  43 100 CALM      29.89R

$$

MOZ001>008-011>017-020>025-030>033-038>040-044>046-053-054-190800-
...NORTHERN AND CENTRAL MISSOURI...

CITY           SKY/WX    TMP DP  RH WIND       PRES   REMARKS
ST. JOSEPH     CLOUDY    41  35  79 CALM      29.88R
WARRENSBURG    CLEAR     50  46  87 S6        29.90S
WHITEMAN AFB   CLEAR     49  49 100 S7        29.89S
CLINTON        CLEAR     46  45  93 S3        29.91F FOG
SEDALIA        CLEAR     55  49  80 SW10      29.92R
WARSAW         NOT AVBL
CHILLICOTHE      N/A     42  37  82 CALM      29.90R
KIRKSVILLE     CLOUDY    41  35  79 CALM      29.90R

$$

MOZ041-047>049-056>058-063>065-088>090-097-190800-
...EASTERN AND SOUTHERN MISSOURI...

CITY           SKY/WX    TMP DP  RH WIND       PRES   REMARKS
ST. LOUIS INTL CLEAR     50  46  86 S3        29.91S
SPIRIT OF STL  PTCLDY    50  48  93 W5        29.91R
COLUMBIA       CLEAR     51  44  77 S3        29.92R
JEFFERSON CITY CLEAR     44  41  89 CALM      29.92R
ROLLA          CLEAR     50  49  96 S13       29.92R
OSAGE BEACH    CLEAR     50  46  86 SE3       29.93R
SPRINGFIELD    CLEAR     48  45  89 SE9       29.91F
BRANSON        CLEAR     50  46  87 CALM      29.94F
JOPLIN         PTCLDY    46  46 100 SE6       29.90F FOG
WEST PLAINS    FOG       49  48  97 SW5       29.97R VSB 1/2

$$

IAZ060-094-KSZ022-034>040-054-083-096-NEZ052-066-093-190800-
...KANSAS...SOUTHEAST NEBRASKA AND IOWA...

CITY           SKY/WX    TMP DP  RH WIND       PRES   REMARKS
TOPEKA         CLEAR     53  48  83 S5        29.88R
MANHATTAN      CLEAR     45  42  89 CALM      29.86R
EMPORIA        CLEAR     48  46  93 S8        29.88R FOG
CHANUTE        FOG       45  44  97 SE6       29.89S VSB 1
WICHITA        CLOUDY    48  46  93 S9        29.85S
OMAHA          CLOUDY    43  32  65 S3        29.84R
LINCOLN        CLEAR     37  30  75 N3        29.83S
FALLS CITY     CLEAR     50  39  66 S9        29.84S
LAMONI         CLOUDY    49  31  49 SE5       29.88R
DES MOINES     PTCLDY    42  34  73 E3        29.89R

$$





USA.gov is the U.S. government's official web portal to all federal, state and local government web resources and services.